TimeGMT,TemperatureF,Dew PointF,Humidity,Sea Level PressureIn,VisibilityMPH,Wind Direction,Wind SpeedMPH,Gust SpeedMPH,PrecipitationIn,Events,Conditions,WindDirDegrees,DateUTC
12:50 AM,44.6,41.0,87,30.12,-9999.0,North,5.8,-,N/A,,Clear,350,2012-11-06 00:50:00
1:50 AM,44.6,41.0,87,30.12,-9999.0,NNW,8.1,-,N/A,,Clear,340,2012-11-06 01:50:00
2:50 AM,44,41,84,30.16,16,North,8.1,,,,Scattered Clouds,350,2012-11-06 02:50:00
2:50 AM,44.6,41.0,87,30.12,6.2,North,8.1,-,N/A,,Partly Cloudy,350,2012-11-06 02:50:00
3:50 AM,44.6,41.0,87,30.15,6.2,NNW,6.9,18.4,N/A,,Partly Cloudy,330,2012-11-06 03:50:00
4:50 AM,44.6,41.0,87,30.15,6.2,NNW,6.9,-,N/A,,Partly Cloudy,340,2012-11-06 04:50:00
5:50 AM,45,41,82,30.21,16,North,11.5,,,,Partly Cloudy,350,2012-11-06 05:50:00
5:50 AM,44.6,41.0,87,30.18,6.2,North,11.5,-,N/A,,Partly Cloudy,350,2012-11-06 05:50:00
6:50 AM,44.6,41.0,87,30.21,6.2,North,8.1,-,N/A,,Partly Cloudy,350,2012-11-06 06:50:00
7:50 AM,42.8,39.2,87,30.24,6.2,NNW,10.4,-,N/A,,Partly Cloudy,340,2012-11-06 07:50:00
8:50 AM,45,41,82,30.27,16,NNW,6.9,,,,Scattered Clouds,330,2012-11-06 08:50:00
8:50 AM,44.6,41.0,87,30.24,6.2,NNW,6.9,-,N/A,,Partly Cloudy,330,2012-11-06 08:50:00
9:50 AM,50.0,42.8,76,30.27,6.2,NNW,6.9,-,N/A,,Scattered Clouds,330,2012-11-06 09:50:00
10:50 AM,50.0,42.8,76,30.30,6.2,NNW,11.5,-,N/A,,Partly Cloudy,330,2012-11-06 10:50:00
11:50 AM,52,42,58,30.31,16,NW,11.5,,,,Partly Cloudy,320,2012-11-06 11:50:00
11:50 AM,51.8,41.0,67,30.30,6.2,NW,11.5,-,N/A,,Partly Cloudy,320,2012-11-06 11:50:00
12:50 PM,51.8,46.4,82,30.30,6.2,NW,9.2,-,N/A,,Mostly Cloudy,320,2012-11-06 12:50:00
1:50 PM,51.8,44.6,76,30.30,6.2,NW,15.0,-,N/A,,Mostly Cloudy,310,2012-11-06 13:50:00
2:04 PM,51.8,46.4,82,30.30,5.0,NW,11.5,23.0,N/A,Rain,Light Rain Showers,310,2012-11-06 14:04:00
2:50 PM,51,47,80,30.31,9,NW,11.5,,,,Haze,310,2012-11-06 14:50:00
2:50 PM,51.8,46.4,82,30.30,6.2,NW,11.5,-,N/A,,Haze,310,2012-11-06 14:50:00
3:50 PM,51.8,44.6,76,30.30,6.2,WNW,12.7,-,N/A,,Haze,290,2012-11-06 15:50:00
4:50 PM,50.0,46.4,87,30.30,6.2,WNW,9.2,-,N/A,,Haze,290,2012-11-06 16:50:00
5:50 PM,51,46,77,30.32,12,WNW,12.7,,,,Mostly Cloudy,290,2012-11-06 17:50:00
5:50 PM,50.0,46.4,87,30.30,6.2,WNW,12.7,-,N/A,,Mostly Cloudy,290,2012-11-06 17:50:00
6:50 PM,48.2,46.4,93,30.30,6.2,WNW,11.5,-,N/A,,Haze,300,2012-11-06 18:50:00
7:50 PM,48.2,44.6,87,30.30,6.2,WNW,10.4,-,N/A,,Mostly Cloudy,300,2012-11-06 19:50:00
8:50 PM,49,46,86,30.34,11,WNW,11.5,,,,Haze,290,2012-11-06 20:50:00
8:50 PM,50.0,46.4,87,30.33,6.2,WNW,11.5,-,N/A,,Haze,290,2012-11-06 20:50:00
9:50 PM,50.0,46.4,87,30.33,6.2,WNW,10.4,-,N/A,,Mostly Cloudy,300,2012-11-06 21:50:00
10:50 PM,48.2,44.6,87,30.33,6.2,WNW,10.4,-,N/A,,Mostly Cloudy,300,2012-11-06 22:50:00
11:50 PM,50,46,81,30.36,12,WNW,9.2,,,,Mostly Cloudy,290,2012-11-06 23:50:00
11:50 PM,50.0,46.4,87,30.33,6.2,WNW,9.2,-,N/A,,Mostly Cloudy,290,2012-11-06 23:50:00